Weather History for KROS - January, 2013

Change the Weather History Date:

Thursday, January 31, 2013

  Actual Average (KCBG) Record (KCBG)
Temperature  
Mean Temperature 0 °F -  
Max Temperature 8 °F 23 °F 47 °F (1993)
Min Temperature -10 °F 2 °F -21 °F (1965)
Degree Days  
Heating Degree Days 66    
Moisture  
Dew Point -7 °F    
Average Humidity 69    
Maximum Humidity 81    
Minimum Humidity 58    
Precipitation  
Precipitation 0.00 in - - ()
Sea Level Pressure  
Sea Level Pressure 29.97 in    
Wind  
Wind Speed 11 mph (WNW)    
Max Wind Speed 18 mph    
Max Gust Speed 25 mph    
Visibility 10 miles    
Events      
Averages and records for this station are not official NWS values.
T = Trace of Precipitation, MM = Missing Value Source: NWS Daily Summary

Daily Weather History Graph

Daily Weather History Graph

Search for Another Location

Airport or City:

Trip Planner

Search our weather history database for the weather conditions in past years. The results will help you decide how hot, cold, wet, or windy it might be!

Date:

Astronomy

Jan. 31, 2013 Rise Set
Actual Time 7:34 AM CST 5:17 PM CST
Civil Twilight 7:02 AM CST 5:48 PM CST
Nautical Twilight 6:26 AM CST 6:24 PM CST
Astronomical Twilight 5:51 AM CST 6:59 PM CST
Moon 10:39 PM CST (1/31) 9:16 AM CST (1/31)
Length of Visible Light 10h 46m
Length of Day
9h 42m
Waning Gibbous, 79% of the Moon is Illuminated
Jan 31
Waning Gibbous
Feb 3
Last Quarter
Feb 10
New
Feb 17
First Quarter
Feb 25
Full

Hourly Weather History & Observations

Time (CST) Temp. Windchill Dew Point Humidity Pressure Visibility Wind Dir Wind Speed Gust Speed Precip Events Conditions
12:14 AM 8.4 °F -3.9 °F 1.4 °F 73% 29.71 in 10.0 mi NW 8.1 mph - N/A   Overcast
12:35 AM 8.2 °F -6.8 °F 1.2 °F 73% 29.72 in 10.0 mi WNW 11.5 mph - N/A   Overcast
12:55 AM 7.7 °F -5.8 °F 1.4 °F 75% 29.72 in 10.0 mi WNW 9.2 mph - N/A   Overcast
1:14 AM 7.7 °F -6.6 °F 1.6 °F 76% 29.73 in 10.0 mi WNW 10.4 mph - N/A   Overcast
1:35 AM 7.2 °F -7.3 °F 2.1 °F 80% 29.73 in 7.0 mi WNW 10.4 mph - N/A   Overcast
1:55 AM 6.8 °F -8.6 °F 2.1 °F 81% 29.74 in 7.0 mi WNW 11.5 mph - N/A   Overcast
2:15 AM 6.4 °F -8.2 °F 1.8 °F 81% 29.75 in 10.0 mi WNW 10.4 mph 16.1 mph N/A   Overcast
2:35 AM 6.3 °F -9.2 °F 1.4 °F 80% 29.76 in 10.0 mi WNW 11.5 mph - N/A   Overcast
2:55 AM 5.7 °F -12.0 °F -0.0 °F 77% 29.76 in 10.0 mi WNW 15.0 mph 20.7 mph N/A   Overcast
3:15 AM 5.0 °F -10.0 °F -0.0 °F 80% 29.76 in 7.0 mi WNW 10.4 mph 17.3 mph N/A   Overcast
3:35 AM 4.6 °F -11.3 °F -0.0 °F 81% 29.76 in 7.0 mi WNW 11.5 mph - N/A   Overcast
3:54 AM 3.9 °F -12.2 °F -1.3 °F 79% 29.77 in 10.0 mi WNW 11.5 mph 18.4 mph N/A   Overcast
4:15 AM 3.2 °F -12.2 °F -2.2 °F 78% 29.77 in 10.0 mi WNW 10.4 mph - N/A   Overcast
4:35 AM 3.2 °F -12.2 °F -1.8 °F 80% 29.78 in 10.0 mi WNW 10.4 mph 16.1 mph N/A   Overcast
4:54 AM 3.0 °F -12.5 °F -2.2 °F 79% 29.79 in 10.0 mi WNW 10.4 mph - N/A   Overcast
5:15 AM 2.7 °F -13.8 °F -3.1 °F 77% 29.79 in 10.0 mi WNW 11.5 mph 18.4 mph N/A   Overcast
5:35 AM 2.3 °F -14.2 °F -3.8 °F 76% 29.80 in 10.0 mi WNW 11.5 mph 18.4 mph N/A   Overcast
5:54 AM 1.9 °F -13.8 °F -4.2 °F 76% 29.81 in 10.0 mi West 10.4 mph 17.3 mph N/A   Overcast
6:15 AM 1.4 °F -15.3 °F -4.0 °F 78% 29.81 in 10.0 mi WNW 11.5 mph 17.3 mph N/A   Overcast
6:35 AM 1.4 °F -15.3 °F -4.0 °F 78% 29.83 in 7.0 mi WNW 11.5 mph 17.3 mph N/A   Overcast
6:54 AM 1.4 °F -16.1 °F -4.0 °F 78% 29.83 in 10.0 mi WNW 12.7 mph 19.6 mph N/A   Overcast
7:15 AM 1.2 °F -16.4 °F -4.4 °F 77% 29.84 in 10.0 mi WNW 12.7 mph 19.6 mph N/A   Overcast
7:35 AM 1.0 °F -14.0 °F -4.5 °F 77% 29.85 in 10.0 mi WNW 9.2 mph 18.4 mph N/A   Overcast
7:54 AM 1.0 °F -17.3 °F -4.9 °F 76% 29.86 in 10.0 mi WNW 13.8 mph 21.9 mph N/A   Overcast
8:15 AM 1.0 °F -18.7 °F -4.9 °F 76% 29.88 in 10.0 mi WNW 16.1 mph 19.6 mph N/A   Overcast
8:35 AM 0.9 °F -18.3 °F -6.0 °F 73% 29.89 in 10.0 mi WNW 15.0 mph 21.9 mph N/A   Overcast
8:55 AM 1.0 °F -16.6 °F -6.0 °F 72% 29.90 in 10.0 mi WNW 12.7 mph 21.9 mph N/A   Overcast
9:20 AM 0.9 °F -15.1 °F -6.2 °F 72% 29.91 in 10.0 mi WNW 10.4 mph 19.6 mph N/A   Overcast
9:35 AM 1.4 °F -16.1 °F -6.7 °F 69% 29.92 in 10.0 mi NW 12.7 mph 20.7 mph N/A   Mostly Cloudy
9:55 AM 1.9 °F -14.7 °F -7.8 °F 64% 29.93 in 10.0 mi NW 11.5 mph 19.6 mph N/A   Overcast
10:14 AM 2.3 °F -11.4 °F -8.0 °F 62% 29.94 in 10.0 mi NW 8.1 mph 21.9 mph N/A   Overcast
10:35 AM 1.9 °F -15.5 °F -7.4 °F 65% 29.95 in 10.0 mi WNW 12.7 mph 21.9 mph N/A   Mostly Cloudy
10:55 AM 2.3 °F -16.4 °F -7.2 °F 64% 29.96 in 10.0 mi WNW 15.0 mph 20.7 mph N/A   Mostly Cloudy
11:14 AM 1.4 °F -14.5 °F -7.2 °F 67% 29.97 in 10.0 mi WNW 10.4 mph 17.3 mph N/A   Overcast
11:35 AM 1.9 °F -13.8 °F -6.9 °F 67% 29.98 in 10.0 mi WNW 10.4 mph 19.6 mph N/A   Overcast
11:55 AM 1.8 °F -15.7 °F -7.6 °F 65% 29.98 in 10.0 mi WNW 12.7 mph 19.6 mph N/A   Overcast
12:15 PM 2.3 °F -15.7 °F -7.6 °F 63% 29.98 in 10.0 mi WNW 13.8 mph 20.7 mph N/A   Overcast
12:35 PM 2.3 °F -16.4 °F -7.8 °F 63% 29.98 in 10.0 mi NW 15.0 mph 20.7 mph N/A   Overcast
12:55 PM 2.3 °F -15.7 °F -7.2 °F 64% 29.98 in 10.0 mi NW 13.8 mph - N/A   Overcast
1:15 PM 3.0 °F -16.1 °F -7.6 °F 61% 29.99 in 10.0 mi WNW 16.1 mph 19.6 mph N/A   Overcast
1:35 PM 2.8 °F -15.7 °F -8.0 °F 61% 29.99 in 10.0 mi WNW 15.0 mph 25.3 mph N/A   Scattered Clouds
1:55 PM 3.4 °F -16.8 °F -7.8 °F 60% 30.00 in 10.0 mi WNW 18.4 mph 24.2 mph N/A   Scattered Clouds
2:15 PM 3.6 °F -16.0 °F -7.6 °F 60% 30.01 in 10.0 mi WNW 17.3 mph 24.2 mph N/A   Scattered Clouds
2:35 PM 3.7 °F -15.8 °F -7.4 °F 60% 30.01 in 10.0 mi WNW 17.3 mph 25.3 mph N/A   Scattered Clouds
2:55 PM 3.2 °F -14.6 °F -7.8 °F 60% 30.02 in 10.0 mi NW 13.8 mph 20.7 mph N/A   Clear
3:15 PM 4.1 °F -14.7 °F -7.1 °F 60% 30.03 in 10.0 mi WNW 16.1 mph 21.9 mph N/A   Clear
3:35 PM 4.1 °F -12.7 °F -7.2 °F 59% 30.04 in 10.0 mi NW 12.7 mph 21.9 mph N/A   Clear
3:55 PM 4.5 °F -14.3 °F -7.1 °F 59% 30.05 in 10.0 mi WNW 16.1 mph 20.7 mph N/A   Clear
4:14 PM 4.3 °F -11.7 °F -7.1 °F 59% 30.06 in 10.0 mi NW 11.5 mph 18.4 mph N/A   Clear
4:35 PM 4.1 °F -10.2 °F -7.6 °F 58% 30.06 in 10.0 mi NW 9.2 mph 25.3 mph N/A   Scattered Clouds
4:55 PM 3.9 °F -13.7 °F -7.6 °F 59% 30.07 in 10.0 mi WNW 13.8 mph 20.7 mph N/A   Scattered Clouds
5:14 PM 3.2 °F -13.1 °F -8.1 °F 59% 30.08 in 10.0 mi WNW 11.5 mph 19.6 mph N/A   Mostly Cloudy
5:35 PM 2.3 °F -13.4 °F -8.1 °F 62% 30.09 in 10.0 mi WNW 10.4 mph 18.4 mph N/A   Mostly Cloudy
5:55 PM 2.1 °F -15.2 °F -8.3 °F 62% 30.10 in 10.0 mi WNW 12.7 mph 17.3 mph N/A   Scattered Clouds
6:15 PM 1.2 °F -13.7 °F -8.7 °F 63% 30.11 in 10.0 mi West 9.2 mph - N/A   Scattered Clouds
6:35 PM -0.0 °F -14.2 °F -9.2 °F 65% 30.12 in 10.0 mi West 8.1 mph - N/A   Scattered Clouds
6:55 PM -0.6 °F -16.0 °F -9.6 °F 66% 30.13 in 10.0 mi WNW 9.2 mph - N/A   Scattered Clouds
7:14 PM -0.9 °F -16.4 °F -10.3 °F 65% 30.14 in 10.0 mi WNW 9.2 mph - N/A   Scattered Clouds
7:35 PM -1.7 °F -18.3 °F -10.7 °F 66% 30.14 in 10.0 mi WNW 10.4 mph - N/A   Mostly Cloudy
7:55 PM -2.6 °F -18.4 °F -11.2 °F 67% 30.15 in 10.0 mi West 9.2 mph - N/A   Mostly Cloudy
8:14 PM -3.5 °F -20.5 °F -12.1 °F 67% 30.16 in 10.0 mi West 10.4 mph - N/A   Mostly Cloudy
8:35 PM -4.0 °F -23.7 °F -12.8 °F 66% 30.17 in 10.0 mi West 13.8 mph - N/A   Overcast
8:55 PM -4.7 °F -23.0 °F -13.4 °F 66% 30.17 in 10.0 mi WNW 11.5 mph 19.6 mph N/A   Overcast
9:14 PM -5.8 °F -24.4 °F -14.1 °F 67% 30.18 in 10.0 mi West 11.5 mph - N/A   Mostly Cloudy
9:35 PM -6.7 °F -25.5 °F -15.0 °F 67% 30.19 in 10.0 mi WNW 11.5 mph 16.1 mph N/A   Mostly Cloudy
9:55 PM -7.4 °F -24.4 °F -15.9 °F 67% 30.19 in 10.0 mi WNW 9.2 mph - N/A   Scattered Clouds
10:14 PM -7.8 °F -24.8 °F -15.9 °F 68% 30.19 in 10.0 mi WNW 9.2 mph - N/A   Mostly Cloudy
10:35 PM -8.5 °F -25.7 °F -16.6 °F 68% 30.20 in 10.0 mi West 9.2 mph - N/A   Mostly Cloudy
10:55 PM -9.4 °F -26.8 °F -17.5 °F 68% 30.20 in 10.0 mi West 9.2 mph - N/A   Scattered Clouds
11:14 PM -9.8 °F -24.7 °F -17.7 °F 68% 30.20 in 10.0 mi West 6.9 mph - N/A   Mostly Cloudy
11:35 PM -9.9 °F -27.5 °F -18.4 °F 66% 30.21 in 10.0 mi WNW 9.2 mph - N/A   Mostly Cloudy
11:54 PM -10.3 °F -26.7 °F -18.9 °F 66% 30.22 in 10.0 mi WNW 8.1 mph - N/A   Scattered Clouds